Regional Weather Roundup
Issued by NWS

Home | Current Version | Previous Version | Graphics & Text | Print | Product List | Glossary On
Versions: 1 2 3 4 5 6 7 8 9 10 11 12 13 14 15 16 17 18 19 20 21 22 23 24 25 26 27 28 29 30 31 32 33 34 35 36 37 38 39 40 41 42 43 44 45 46 47 48 49 50
000
ASUS43 KLMK 132002
RWRKY
KENTUCKY REGIONAL WEATHER ROUNDUP
NATIONAL WEATHER SERVICE LOUISVILLE KY
400 PM EDT SUN JUL 13 2014

NOTE "FAIR" INDICATES FEW OR NO CLOUDS BELOW 12,000 FEET
WITH NO SIGNIFICANT WEATHER AND/OR OBSTRUCTIONS TO VISIBILITY.

KYZ001>023-026-027-061>063-070>075-132100-
WESTERN AND SOUTH CENTRAL KENTUCKY

CITY           SKY/WX    TMP DP  RH WIND       PRES   REMARKS
PADUCAH        SUNNY     93  75  55 SW14G22   29.97F HX 104
HENDERSON      MOSUNNY   91  73  55 SW12      29.94F HX 100
OWENSBORO      MOSUNNY   95  71  45 W16G23    29.95F HX 102
HOPKINSVILLE   MOSUNNY   93  70  47 SW15G23   30.00F HX  99
BOWLING GREEN  PTSUNNY   94  70  45 SW10G18   29.99F HX 100
GLASGOW        NOT AVBL
$$

KYZ024-025-028>034-038-045-046-053-132100-
NORTH CENTRAL KENTUCKY

CITY           SKY/WX    TMP DP  RH WIND       PRES   REMARKS
LOUISVILLE/SDF MOSUNNY   97  67  37 SW13G21   29.92F HX 101
LOUISVILLE/LOU MOSUNNY   94  67  41 SW14G24   29.92F HX  97
FORT KNOX      PTSUNNY   91  71  51 S10       29.94F HX  97
$$

KYZ035>037-039>044-047>052-055>060-089>105-132100-
NORTHEAST KENTUCKY

CITY           SKY/WX    TMP DP  RH WIND       PRES   REMARKS
LEXINGTON      MOSUNNY   92  67  43 SW14G24   29.97F HX  95
COVINGTON      MOSUNNY   80  69  69 SW8G22    29.93F
FRANKFORT      MOSUNNY   91  70  49 SW17      29.94F HX  96
$$

KYZ054-064>069-076>088-106>120-132100-
SOUTHEAST KENTUCKY

CITY           SKY/WX    TMP DP  RH WIND       PRES   REMARKS
JACKSON        SUNNY     92  64  39 W8        30.02F HX  93
LONDON         MOSUNNY   89  69  51 S10G20    30.03F HX  93
SOMERSET       MOSUNNY   91  59  33 SW10      30.02F HX  90
MIDDLESBORO    PTSUNNY   84  69  61 S3        30.07F
MONTICELLO     CLEAR     94  67  41 SW9       30.03F HX  97
$$




USA.gov is the U.S. government's official web portal to all federal, state and local government web resources and services.